Regional Weather Roundup
Issued by NWS

Home | Current Version | Previous Version | Text Only | Print | Product List | Glossary Off
Versions: 1 2 3 4 5 6 7 8 9 10 11 12 13 14 15 16 17 18 19 20 21 22 23 24 25 26 27 28 29 30 31 32 33 34 35 36 37 38 39 40 41 42 43 44 45 46 47 48 49 50

000
ASUS45 KBOI 202310
RWRID
WEATHER ROUNDUP FOR IDAHO
NATIONAL WEATHER SERVICE BOISE ID
400 PM MST SAT DEC 20 2014

NOTE: "FAIR" INDICATES FEW OR NO CLOUDS BELOW 12000 FEET
WITH NO SIGNIFICANT WEATHER AND/OR OBSTRUCTIONS TO VISIBILITY

IDZ012-014-210000-
SOUTHWEST IDAHO


CITY           SKY/WX    TMP DP  RH WIND       PRES   REMARKS
BOISE          LGT RAIN  42  39  89 E9        29.96S FOG
CALDWELL       CLOUDY    45  36  70 NE10      29.95F
MOUNTAIN HOME  LGT RAIN  42  39  88 E10       29.97R
$$

IDZ016-017-210000-
SOUTHCENTRAL IDAHO


CITY           SKY/WX    TMP DP  RH WIND       PRES   REMARKS
BURLEY         CLOUDY    41  34  76 SW12      29.97S
JEROME         CLOUDY    42  36  79 CALM      29.99R
TWIN FALLS     CLOUDY    46  36  68 SW8       29.98R
$$

IDZ019>023-210000-
SOUTHEAST IDAHO


CITY           SKY/WX    TMP DP  RH WIND       PRES   REMARKS
IDAHO FALLS    CLOUDY    36  34  92 SW8       29.99S WCI  30
POCATELLO      CLOUDY    41  34  76 S16       30.00S
REXBURG        CLOUDY    35  33  92 SW8       29.98S WCI  29
$$

IDZ006-010-011-018-031-032-210000-
CENTRAL IDAHO MOUNTAINS


CITY           SKY/WX    TMP DP  RH WIND       PRES   REMARKS
MCCALL         LGT SNOW  33  31  92 SE7       29.86S FOG     WCI  27
HAILEY         CLOUDY    32  32 100 SE5       29.98R WCI  27
STANLEY          N/A     34  27  75 SE6       29.89S WCI  29
SALMON         CLOUDY    36  28  75 CALM      29.87F
CHALLIS        CLOUDY    33  26  75 CALM      29.88F
$$

IDZ002-004-006-007-026-210000-
NORTHERN IDAHO


CITY           SKY/WX    TMP DP  RH WIND       PRES   REMARKS
LEWISTON       LGT RAIN  44  39  82 E8        29.76F
LOWELL           N/A     41  39  93 CALM      29.85F
COEUR D`ALENE  CLOUDY    39  37  93 CALM      29.71F
MULLAN PASS    SNOW      30  27  88 VRB5      29.69F VSB 1/4 WCI  25
$$



USA.gov is the U.S. government's official web portal to all federal, state and local government web resources and services.